GW5165 Weather Reports


time (UTC)temp
F
wind
direction
speed
knots
gust
knots
rain 1hr
in
rain 24hr
in
rain mn
in
humidity
%
barometer
mb
20260502200214 62 234 1.7 1.7 0.00 0.00 0.00 29 1016.1
20260502195712 61 294 7.8 9.6 0.00 0.00 0.00 29 1016.4
20260502195208 61 301 4.3 6.1 0.00 0.00 0.00 29 1016.3
20260502194700 62 254 8.7 9.6 0.00 0.00 0.00 28 1016.4
20260502194156 62 311 0.9 1.7 0.00 0.00 0.00 28 1016.3
20260502193652 61 251 7.0 7.8 0.00 0.00 0.00 28 1016.6
20260502193149 61 306 7.0 7.8 0.00 0.00 0.00 29 1016.7
20260502192645 60 254 3.5 5.2 0.00 0.00 0.00 30 1016.8
20260502192142 60 263 5.2 7.8 0.00 0.00 0.00 29 1017.0
20260502191639 60 189 1.7 3.5 0.00 0.00 0.00 29 1017.1
20260502191136 60 294 4.3 6.1 0.00 0.00 0.00 29 1017.1
20260502190634 59 264 7.8 8.7 0.00 0.00 0.00 30 1017.2
20260502190132 60 285 5.2 7.0 0.00 0.00 0.00 29 1017.1
20260502185626 60 290 5.2 7.0 0.00 0.00 0.00 28 1017.4
20260502185123 59 287 2.6 5.2 0.00 0.00 0.00 29 1017.4
20260502184619 59 215 7.0 8.7 0.00 0.00 0.00 30 1017.7
20260502184115 59 244 6.1 8.7 0.00 0.00 0.00 30 1017.6
20260502183611 59 296 7.0 9.6 0.00 0.00 0.00 31 1017.7
20260502183108 60 283 3.5 3.5 0.00 0.00 0.00 29 1017.8
20260502182603 58 277 5.2 6.1 0.00 0.00 0.00 29 1017.9
20260502182059 59 288 4.3 6.1 0.00 0.00 0.00 30 1018.0
20260502181557 58 253 7.0 7.8 0.00 0.00 0.00 30 1017.8
20260502181055 57 261 7.8 9.6 0.00 0.00 0.00 32 1018.0
20260502180552 58 280 7.0 7.8 0.00 0.00 0.00 31 1018.4
20260502170505 56 261 7.0 7.8 0.00 0.00 0.00 29 1018.8
20260502163949 55 219 0.9 1.7 0.00 0.00 0.00 31 1019.3
20260502163444 54 258 7.8 9.6 0.00 0.00 0.00 32 1019.2
20260502162943 55 231 3.5 3.5 0.00 0.00 0.00 32 1019.4
20260502162440 55 258 4.3 6.1 0.00 0.00 0.00 31 1019.6
20260502161937 55 302 2.6 3.5 0.00 0.00 0.00 32 1019.4
20260502161432 54 243 5.2 7.0 0.00 0.00 0.00 32 1019.5
20260502160930 53 256 3.5 3.5 0.00 0.00 0.00 34 1019.6
20260502160428 53 280 4.3 6.1 0.00 0.00 0.00 34 1019.7
20260502151907 52 265 5.2 6.1 0.00 0.00 0.00 38 1019.9
20260502151402 52 275 6.1 7.0 0.00 0.00 0.00 38 1019.7
20260502150900 52 268 1.7 2.6 0.00 0.00 0.00 40 1019.9
20260502150356 52 302 1.7 2.6 0.00 0.00 0.00 41 1020.0
20260502130745 44 269 2.6 2.6 0.00 0.00 0.00 54 1020.2
20260502130242 44 229 1.7 2.6 0.00 0.00 0.00 55 1020.2
20260502123728 41 271 1.7 1.7 0.00 0.00 0.00 56 1020.2
20260502123225 41 216 0.9 1.7 0.00 0.00 0.00 57 1020.0
20260502122722 41 267 2.6 2.6 0.00 0.00 0.00 57 1020.0
20260502122218 40 211 1.7 1.7 0.00 0.00 0.00 57 1020.1
20260502121717 40 269 1.7 1.7 0.00 0.00 0.00 57 1020.0
20260502121214 40 266 2.6 2.6 0.00 0.00 0.00 58 1020.1
20260502120710 39 249 1.7 1.7 0.00 0.00 0.00 58 1019.9
20260502120207 39 230 0.9 0.9 0.00 0.00 0.00 59 1020.0
20260502115705 39 208 0.9 0.9 0.00 0.00 0.00 60 1019.9
20260502115201 38 252 1.7 1.7 0.00 0.00 0.00 61 1020.1
20260502114657 37 266 0.9 1.7 0.00 0.00 0.00 62 1020.1
20260502114154 37 256 1.7 1.7 0.00 0.00 0.00 64 1020.0
20260502113652 36 253 0.9 0.9 0.00 0.00 0.00 64 1019.9
20260502113150 36 254 0.9 0.9 0.00 0.00 0.00 64 1019.8
20260502112647 36 257 1.7 1.7 0.00 0.00 0.00 65 1019.7
20260502112144 36 264 0.0 0.9 0.00 0.00 0.00 65 1019.8
20260502111642 36 258 0.9 0.9 0.00 0.00 0.00 64 1019.7
20260502111139 36 277 0.9 0.9 0.00 0.00 0.00 65 1019.6
20260502110637 36 261 0.9 0.9 0.00 0.00 0.00 64 1019.7
20260502110134 36 276 0.9 0.9 0.00 0.00 0.00 65 1019.7
20260502105631 36 261 1.7 1.7 0.00 0.00 0.00 64 1019.7
20260502105128 36 256 0.9 0.9 0.00 0.00 0.00 64 1019.7
20260502104625 35 258 0.9 0.9 0.00 0.00 0.00 65 1019.7
20260502104123 35 270 0.9 0.9 0.00 0.00 0.00 66 1019.7
20260502103620 35 269 0.9 0.9 0.00 0.00 0.00 67 1019.8
20260502103119 35 254 0.0 0.9 0.00 0.00 0.00 67 1019.8
20260502102615 35 266 0.9 1.7 0.00 0.00 0.00 66 1019.7
20260502102112 36 256 0.9 1.7 0.00 0.00 0.00 65 1019.7
20260502101610 36 261 0.9 1.7 0.00 0.00 0.00 64 1019.8
20260502101108 37 181 0.0 0.9 0.00 0.00 0.00 62 1019.8
20260502100606 37 235 0.9 0.9 0.00 0.00 0.00 62 1019.8
20260502100104 37 263 0.9 1.7 0.00 0.00 0.00 61 1019.8
20260502091038 37 182 0.0 0.9 0.00 0.00 0.00 61 1019.7
20260502090535 37 206 0.9 0.9 0.00 0.00 0.00 60 1019.5
20260502071429 39 279 0.9 0.9 0.00 0.00 0.00 57 1019.7
20260502070927 39 285 0.9 0.9 0.00 0.00 0.00 57 1019.8
20260502070425 39 276 0.9 0.9 0.00 0.00 0.00 57 1019.7
20260502065923 39 278 0.9 0.9 0.00 0.00 0.00 56 1019.7
20260502065422 39 275 0.9 0.9 0.00 0.00 0.00 56 1019.7
20260502064919 39 283 0.9 0.9 0.00 0.00 0.00 55 1019.8
20260502064417 39 277 0.9 0.9 0.00 0.00 0.00 55 1020.0
20260502063914 39 280 0.9 0.9 0.00 0.00 0.00 56 1020.0
20260502063411 40 273 0.9 0.9 0.00 0.00 0.00 56 1020.1
20260502062909 40 280 0.9 0.9 0.00 0.00 0.00 55 1020.1
20260502062406 41 294 0.9 0.9 0.00 0.00 0.00 53 1020.0
20260502061905 41 352 0.9 0.9 0.00 0.00 0.00 52 1019.8
20260502061402 41 300 0.9 0.9 0.00 0.00 0.00 52 1020.0
20260502060858 41 322 0.9 0.9 0.00 0.00 0.00 51 1020.0
20260502060353 41 344 0.0 0.9 0.00 0.00 0.00 51 1019.9
20260502055851 41 349 0.9 1.7 0.00 0.00 0.00 51 1019.9
20260502055348 41 47 0.0 0.9 0.00 0.00 0.00 52 1019.9
20260502054848 41 31 0.0 0.9 0.00 0.00 0.00 53 1019.6
20260502054345 41 341 0.9 0.9 0.00 0.00 0.00 53 1019.8
20260502053842 41 312 0.9 0.9 0.00 0.00 0.00 53 1019.8
20260502053339 41 304 0.9 0.9 0.00 0.00 0.00 54 1019.9
20260502052837 40 66 0.0 0.0 0.00 0.00 0.00 54 1020.0
20260502052335 40 38 0.0 0.0 0.00 0.00 0.00 55 1019.7
20260502051832 40 331 0.0 0.0 0.00 0.00 0.00 54 1019.6
20260502051331 41 270 0.9 0.9 0.00 0.00 0.00 53 1019.6
20260502050827 42 270 1.7 1.7 0.00 0.00 0.00 51 1019.6
20260502050323 42 36 0.0 0.0 0.00 0.00 0.00 50 1019.6
20260502045821 42 50 0.0 0.9 0.00 0.00 0.00 50 1019.7
20260502045317 42 336 0.9 0.9 0.00 0.00 0.00 50 1019.5
20260502044815 42 16 0.9 0.9 0.00 0.00 0.00 50 1019.5
20260502044310 42 339 0.9 0.9 0.00 0.00 0.00 50 1019.5
20260502043808 42 352 0.9 0.9 0.00 0.00 0.00 51 1019.5
20260502043305 42 26 0.9 0.9 0.00 0.00 0.00 52 1019.6
20260502042805 42 261 0.9 0.9 0.00 0.00 0.00 51 1019.5
20260502042305 42 340 0.0 0.9 0.00 0.00 0.00 52 1019.6
20260502041800 42 300 0.9 0.9 0.00 0.00 0.00 54 1019.5
20260502041257 42 356 0.0 0.9 0.00 0.00 0.00 53 1019.6
20260502040754 42 57 0.0 0.0 0.00 0.00 0.00 52 1019.6
20260502040250 42 356 0.9 1.7 0.00 0.00 0.00 53 1019.6
20260502035746 42 59 0.0 0.0 0.00 0.00 0.00 53 1019.5
20260502035243 43 39 0.0 0.0 0.00 0.00 0.00 52 1019.5
20260502034741 43 299 0.9 0.9 0.00 0.00 0.00 51 1019.4
20260502034239 44 24 0.9 0.9 0.00 0.00 0.00 49 1019.4
20260502033737 44 56 0.9 0.9 0.00 0.00 0.00 48 1019.5
20260502033235 44 81 0.9 0.9 0.00 0.00 0.00 47 1019.5
20260502032731 45 12 0.9 1.7 0.00 0.00 0.00 47 1019.6
20260502032227 44 3 1.7 2.6 0.00 0.00 0.00 47 1019.4
20260502031725 44 80 0.0 0.9 0.00 0.00 0.00 48 1019.5
20260502031223 44 36 0.9 1.7 0.00 0.00 0.00 48 1019.3
20260502030722 44 97 0.0 0.9 0.00 0.00 0.00 48 1019.5
20260502030219 45 72 0.9 0.9 0.00 0.00 0.00 47 1019.5
20260502025715 45 46 0.9 0.9 0.00 0.00 0.00 47 1019.3
20260502025214 45 352 0.9 0.9 0.00 0.00 0.00 47 1019.5
20260502024711 45 2 1.7 1.7 0.00 0.00 0.00 47 1019.3
20260502024209 46 334 0.9 0.9 0.00 0.00 0.00 46 1019.4
20260502023707 46 76 0.9 0.9 0.00 0.00 0.00 45 1019.4
20260502023204 46 320 1.7 1.7 0.00 0.00 0.00 45 1019.4
20260502022701 46 323 1.7 1.7 0.00 0.00 0.00 44 1019.1
20260502022157 46 359 1.7 2.6 0.00 0.00 0.00 44 1019.2
20260502021655 47 358 0.0 0.9 0.00 0.00 0.00 44 1019.2
20260502021152 47 32 0.9 0.9 0.00 0.00 0.00 44 1019.2
20260502020649 47 78 0.0 0.0 0.00 0.00 0.00 43 1019.1
20260502020146 47 15 1.7 1.7 0.00 0.00 0.00 43 1018.9
20260502015644 47 104 0.9 1.7 0.00 0.00 0.00 42 1018.9
20260502015140 47 28 0.9 1.7 0.00 0.00 0.00 42 1019.0
20260502014638 48 71 0.0 0.0 0.00 0.00 0.00 42 1018.8
20260502014135 48 101 0.0 0.9 0.00 0.00 0.00 41 1018.7
20260502013631 48 76 0.0 0.9 0.00 0.00 0.00 41 1018.6
20260502013126 48 19 0.9 1.7 0.00 0.00 0.00 40 1018.6
20260502012624 48 83 0.0 0.9 0.00 0.00 0.00 40 1018.4
20260502012122 49 90 0.0 0.9 0.00 0.00 0.00 39 1018.4
20260502011618 49 82 0.9 1.7 0.00 0.00 0.00 39 1018.1
20260502011114 49 140 0.9 0.9 0.00 0.00 0.00 39 1018.3
20260502010612 50 358 1.7 1.7 0.00 0.00 0.00 39 1018.5
20260502010108 50 309 4.3 5.2 0.00 0.00 0.00 39 1018.4
20260502005606 50 63 0.9 0.9 0.00 0.00 0.00 39 1018.3
20260502005103 50 358 0.9 0.9 0.00 0.00 0.00 38 1018.3
20260502004559 50 254 1.7 1.7 0.00 0.00 0.00 38 1018.1
20260502004056 50 290 0.9 0.9 0.00 0.00 0.00 38 1018.0
20260502003554 50 35 1.7 1.7 0.00 0.00 0.00 38 1018.0
20260502003050 50 46 4.3 6.1 0.00 0.00 0.00 37 1018.0
20260502002547 51 329 3.5 3.5 0.00 0.00 0.00 37 1018.0
20260502002044 51 22 1.7 2.6 0.00 0.00 0.00 36 1018.0
20260502001542 51 354 0.9 1.7 0.00 0.00 0.00 35 1017.9
20260502001039 51 14 1.7 2.6 0.00 0.00 0.00 36 1017.9
20260502000537 52 352 1.7 1.7 0.00 0.00 0.00 35 1017.8
20260502000034 51 322 4.3 5.2 0.00 0.00 0.00 36 1017.8
20260501235530 51 352 1.7 1.7 0.00 0.00 0.00 37 1017.7
20260501235025 51 325 2.6 5.2 0.00 0.00 0.00 37 1017.7
20260501234521 51 239 0.9 1.7 0.00 0.00 0.00 36 1017.8
20260501234020 51 328 4.3 5.2 0.00 0.00 0.00 35 1017.9
20260501233518 51 305 2.6 3.5 0.00 0.00 0.00 35 1017.7
20260501233014 51 23 1.7 2.6 0.00 0.00 0.00 35 1017.7
20260501232510 52 334 5.2 7.0 0.00 0.00 0.00 34 1017.8
20260501232008 52 123 0.9 0.9 0.00 0.00 0.00 35 1017.9
20260501231506 52 222 0.9 1.7 0.00 0.00 0.00 35 1017.8
20260501231004 52 17 3.5 5.2 0.00 0.00 0.00 34 1017.8
20260501230502 52 66 1.7 3.5 0.00 0.00 0.00 34 1017.6
20260501225959 53 54 2.6 3.5 0.00 0.00 0.00 34 1017.7
20260501225457 52 63 1.7 1.7 0.00 0.00 0.00 35 1017.7
20260501224952 52 29 2.6 2.6 0.00 0.00 0.00 34 1017.7
20260501224450 52 359 1.7 1.7 0.00 0.00 0.00 35 1017.6
20260501223947 52 205 1.7 1.7 0.00 0.00 0.00 35 1017.7
20260501223443 52 49 4.3 6.1 0.00 0.00 0.00 34 1017.7
20260501222939 52 72 1.7 2.6 0.00 0.00 0.00 34 1017.7
20260501222436 53 156 1.7 2.6 0.00 0.00 0.00 34 1017.7
20260501221932 54 350 7.0 9.6 0.00 0.00 0.00 33 1017.7
20260501221430 54 318 2.6 5.2 0.00 0.00 0.00 33 1017.7
20260501220928 54 293 5.2 7.0 0.00 0.00 0.00 33 1017.6
20260501220425 54 11 3.5 3.5 0.00 0.00 0.00 31 1017.5
20260501215921 54 350 2.6 3.5 0.00 0.00 0.00 32 1017.6
20260501215418 53 79 1.7 2.6 0.00 0.00 0.00 32 1017.6
20260501214913 52 321 5.2 7.8 0.00 0.00 0.00 34 1017.5
20260501214408 53 51 6.1 8.7 0.00 0.00 0.00 33 1017.4
20260501213904 53 324 2.6 2.6 0.00 0.00 0.00 33 1017.8
20260501213401 53 4 1.7 2.6 0.00 0.00 0.00 34 1017.6
20260501212857 53 23 3.5 5.2 0.00 0.00 0.00 34 1017.7
20260501212354 53 16 3.5 3.5 0.00 0.00 0.00 34 1017.5
20260501211851 53 264 3.5 5.2 0.00 0.00 0.00 34 1017.8
20260501211348 53 38 1.7 2.6 0.00 0.00 0.00 33 1017.7
20260501210846 53 319 7.0 8.7 0.00 0.00 0.00 33 1017.5
20260501210342 53 331 6.1 9.6 0.00 0.00 0.00 34 1017.6
20260501205839 53 244 3.5 5.2 0.00 0.00 0.00 33 1017.7
20260501205336 53 48 3.5 5.2 0.00 0.00 0.00 34 1017.7
20260501204832 53 63 5.2 7.0 0.00 0.00 0.00 34 1017.7
20260501204329 54 320 3.5 3.5 0.00 0.00 0.00 33 1017.8
20260501203825 52 12 4.3 6.1 0.00 0.00 0.00 34 1017.8
20260501203323 52 328 4.3 7.0 0.00 0.00 0.00 34 1017.8
20260501202814 52 353 1.7 2.6 0.00 0.00 0.00 35 1017.7
20260501202311 53 66 3.5 3.5 0.00 0.00 0.00 34 1017.8
20260501201808 53 118 1.7 2.6 0.00 0.00 0.00 34 1017.7
20260501201305 53 217 4.3 6.1 0.00 0.00 0.00 35 1017.9
20260501200801 53 49 3.5 5.2 0.00 0.00 0.00 33 1017.8